owner,sensor,date,latitude,longitude,vertical_datum,sea_water_practical_salinity,qcFlag 
SCCF RECON,ioos:station:SCCF:56:1,2017-01-01T00:00:00Z,26.4645,-82.1044,1.57,31.31,1111122 
SCCF RECON,ioos:station:SCCF:56:1,2017-01-01T01:00:00Z,26.4645,-82.1044,1.515,31.33,1111122 
SCCF RECON,ioos:station:SCCF:56:1,2017-01-01T02:00:00Z,26.4645,-82.1044,1.5,31.35,1111122 
SCCF RECON,ioos:station:SCCF:56:1,2017-01-01T03:00:00Z,26.4645,-82.1044,1.57,31.28,1111122 
SCCF RECON,ioos:station:SCCF:56:1,2017-01-01T04:00:00Z,26.4645,-82.1044,1.71,30.93,1111122 
SCCF RECON,ioos:station:SCCF:56:1,2017-01-01T05:00:00Z,26.4645,-82.1044,1.82,30.64,1111122 
SCCF RECON,ioos:station:SCCF:56:1,2017-01-01T06:00:00Z,26.4645,-82.1044,1.89,30.55,1111122 
SCCF RECON,ioos:station:SCCF:56:1,2017-01-01T07:00:00Z,26.4645,-82.1044,1.9,30.5,1111122 
SCCF RECON,ioos:station:SCCF:56:1,2017-01-01T08:00:00Z,26.4645,-82.1044,1.881,30.64,1111122 
SCCF RECON,ioos:station:SCCF:56:1,2017-01-01T09:00:00Z,26.4645,-82.1044,1.79,30.83,1111122 
SCCF RECON,ioos:station:SCCF:56:1,2017-01-01T10:00:00Z,26.4645,-82.1044,1.67,30.71,1111122 
SCCF RECON,ioos:station:SCCF:56:1,2017-01-01T11:00:00Z,26.4645,-82.1044,1.55,30.93,1111122 
SCCF RECON,ioos:station:SCCF:56:1,2017-01-01T12:00:00Z,26.4645,-82.1044,1.425,31.16,1111122 
SCCF RECON,ioos:station:SCCF:56:1,2017-01-01T13:00:00Z,26.4645,-82.1044,1.319,31.3,1111122 
SCCF RECON,ioos:station:SCCF:56:1,2017-01-01T14:00:00Z,26.4645,-82.1044,1.231,31.41,1111122 
SCCF RECON,ioos:station:SCCF:56:1,2017-01-01T15:00:00Z,26.4645,-82.1044,1.23,31.47,1111122 
SCCF RECON,ioos:station:SCCF:56:1,2017-01-01T16:00:00Z,26.4645,-82.1044,1.36,30.86,1111122 
SCCF RECON,ioos:station:SCCF:56:1,2017-01-01T17:00:00Z,26.4645,-82.1044,1.54,31.04,1111122 
SCCF RECON,ioos:station:SCCF:56:1,2017-01-01T18:00:00Z,26.4645,-82.1044,1.66,30.88,1111122 
SCCF RECON,ioos:station:SCCF:56:1,2017-01-01T19:00:00Z,26.4645,-82.1044,1.738,30.75,1111122 
SCCF RECON,ioos:station:SCCF:56:1,2017-01-01T20:00:00Z,26.4645,-82.1044,1.8,30.76,1111122 
SCCF RECON,ioos:station:SCCF:56:1,2017-01-01T21:00:00Z,26.4645,-82.1044,1.83,30.88,1111122 
SCCF RECON,ioos:station:SCCF:56:1,2017-01-01T22:00:00Z,26.4645,-82.1044,1.805,30.86,1111122 
SCCF RECON,ioos:station:SCCF:56:1,2017-01-01T23:00:00Z,26.4645,-82.1044,1.75,30.83,1111122 
SCCF RECON,ioos:station:SCCF:56:1,2017-01-02T00:00:00Z,26.4645,-82.1044,1.69,30.8,1111122 
SCCF RECON,ioos:station:SCCF:56:1,2017-01-02T01:00:00Z,26.4645,-82.1044,1.65,30.8,1111122 
SCCF RECON,ioos:station:SCCF:56:1,2017-01-02T02:00:00Z,26.4645,-82.1044,1.62,30.82,1111122 
SCCF RECON,ioos:station:SCCF:56:1,2017-01-02T03:00:00Z,26.4645,-82.1044,1.63,30.85,1111122 
SCCF RECON,ioos:station:SCCF:56:1,2017-01-02T04:00:00Z,26.4645,-82.1044,1.72,30.85,1111122 
SCCF RECON,ioos:station:SCCF:56:1,2017-01-02T05:00:00Z,26.4645,-82.1044,1.83,30.89,1111122 
SCCF RECON,ioos:station:SCCF:56:1,2017-01-02T06:00:00Z,26.4645,-82.1044,1.91,30.96,1111122 
SCCF RECON,ioos:station:SCCF:56:1,2017-01-02T07:00:00Z,26.4645,-82.1044,1.95,30.96,1111122 
SCCF RECON,ioos:station:SCCF:56:1,2017-01-02T08:00:00Z,26.4645,-82.1044,1.93,30.96,1111122 
SCCF RECON,ioos:station:SCCF:56:1,2017-01-02T09:00:00Z,26.4645,-82.1044,1.85,30.95,1111122 
SCCF RECON,ioos:station:SCCF:56:1,2017-01-02T10:00:00Z,26.4645,-82.1044,1.74,30.96,1111122 
SCCF RECON,ioos:station:SCCF:56:1,2017-01-02T11:00:00Z,26.4645,-82.1044,1.62,31.0,1111122 
SCCF RECON,ioos:station:SCCF:56:1,2017-01-02T12:00:00Z,26.4645,-82.1044,1.49,31.07,1111122 
SCCF RECON,ioos:station:SCCF:56:1,2017-01-02T13:00:00Z,26.4645,-82.1044,1.38,31.13,1111122 
SCCF RECON,ioos:station:SCCF:56:1,2017-01-02T14:00:00Z,26.4645,-82.1044,1.27,31.21,1111122 
SCCF RECON,ioos:station:SCCF:56:1,2017-01-02T15:00:00Z,26.4645,-82.1044,1.195,31.29,1111122 
SCCF RECON,ioos:station:SCCF:56:1,2017-01-02T16:00:00Z,26.4645,-82.1044,1.21,31.37,1111122 
SCCF RECON,ioos:station:SCCF:56:1,2017-01-02T17:00:00Z,26.4645,-82.1044,1.345,31.2,1111122 
SCCF RECON,ioos:station:SCCF:56:1,2017-01-02T18:00:00Z,26.4645,-82.1044,1.47,31.04,1111122 
SCCF RECON,ioos:station:SCCF:56:1,2017-01-02T19:00:00Z,26.4645,-82.1044,1.57,31.0,1111122 
SCCF RECON,ioos:station:SCCF:56:1,2017-01-02T20:00:00Z,26.4645,-82.1044,1.635,30.97,1111122 
SCCF RECON,ioos:station:SCCF:56:1,2017-01-02T21:00:00Z,26.4645,-82.1044,1.69,31.01,1111122 
SCCF RECON,ioos:station:SCCF:56:1,2017-01-02T22:00:00Z,26.4645,-82.1044,1.711,30.98,1111122 
SCCF RECON,ioos:station:SCCF:56:1,2017-01-02T23:00:00Z,26.4645,-82.1044,1.689,31.02,1111122 
SCCF RECON,ioos:station:SCCF:56:1,2017-01-03T00:00:00Z,26.4645,-82.1044,1.59,31.01,1111122 
SCCF RECON,ioos:station:SCCF:56:1,2017-01-03T01:00:00Z,26.4645,-82.1044,1.507,31.07,1111122 
SCCF RECON,ioos:station:SCCF:56:1,2017-01-03T02:00:00Z,26.4645,-82.1044,1.45,31.1,1111122 
SCCF RECON,ioos:station:SCCF:56:1,2017-01-03T03:00:00Z,26.4645,-82.1044,1.448,31.11,1111122 
SCCF RECON,ioos:station:SCCF:56:1,2017-01-03T04:00:00Z,26.4645,-82.1044,1.49,31.09,1111122 
SCCF RECON,ioos:station:SCCF:56:1,2017-01-03T05:00:00Z,26.4645,-82.1044,1.58,31.09,1111122 
SCCF RECON,ioos:station:SCCF:56:1,2017-01-03T06:00:00Z,26.4645,-82.1044,1.68,31.23,1111122 
SCCF RECON,ioos:station:SCCF:56:1,2017-01-03T07:00:00Z,26.4645,-82.1044,1.75,31.27,1111122 
SCCF RECON,ioos:station:SCCF:56:1,2017-01-03T08:00:00Z,26.4645,-82.1044,1.76,31.2,1111122 
SCCF RECON,ioos:station:SCCF:56:1,2017-01-03T09:00:00Z,26.4645,-82.1044,1.73,31.17,1111122 
SCCF RECON,ioos:station:SCCF:56:1,2017-01-03T10:00:00Z,26.4645,-82.1044,1.72,31.2,1111122 
SCCF RECON,ioos:station:SCCF:56:1,2017-01-03T11:00:00Z,26.4645,-82.1044,1.68,31.18,1111122 
SCCF RECON,ioos:station:SCCF:56:1,2017-01-03T12:00:00Z,26.4645,-82.1044,1.568,31.19,1111122 
SCCF RECON,ioos:station:SCCF:56:1,2017-01-03T13:00:00Z,26.4645,-82.1044,1.44,31.21,1111122 
SCCF RECON,ioos:station:SCCF:56:1,2017-01-03T14:00:00Z,26.4645,-82.1044,1.34,31.25,1111122 
SCCF RECON,ioos:station:SCCF:56:1,2017-01-03T15:00:00Z,26.4645,-82.1044,1.23,31.29,1111122 
SCCF RECON,ioos:station:SCCF:56:1,2017-01-03T16:00:00Z,26.4645,-82.1044,1.18,31.34,1111122 
SCCF RECON,ioos:station:SCCF:56:1,2017-01-03T17:00:00Z,26.4645,-82.1044,1.227,31.38,1111122 
SCCF RECON,ioos:station:SCCF:56:1,2017-01-03T18:00:00Z,26.4645,-82.1044,1.35,31.33,1111122 
SCCF RECON,ioos:station:SCCF:56:1,2017-01-03T19:00:00Z,26.4645,-82.1044,1.475,31.46,1111122 
SCCF RECON,ioos:station:SCCF:56:1,2017-01-03T20:00:00Z,26.4645,-82.1044,1.57,31.47,1111122 
SCCF RECON,ioos:station:SCCF:56:1,2017-01-03T21:00:00Z,26.4645,-82.1044,1.67,31.48,1111122 
SCCF RECON,ioos:station:SCCF:56:1,2017-01-03T22:00:00Z,26.4645,-82.1044,1.711,31.48,1111122 
SCCF RECON,ioos:station:SCCF:56:1,2017-01-03T23:00:00Z,26.4645,-82.1044,1.71,31.47,1111122 
SCCF RECON,ioos:station:SCCF:56:1,2017-01-04T00:00:00Z,26.4645,-82.1044,1.645,31.4,1111122 
SCCF RECON,ioos:station:SCCF:56:1,2017-01-04T01:00:00Z,26.4645,-82.1044,1.55,31.44,1111122 
SCCF RECON,ioos:station:SCCF:56:1,2017-01-04T02:00:00Z,26.4645,-82.1044,1.49,31.45,1111122 
SCCF RECON,ioos:station:SCCF:56:1,2017-01-04T03:00:00Z,26.4645,-82.1044,1.46,31.46,1111122 
SCCF RECON,ioos:station:SCCF:56:1,2017-01-04T04:00:00Z,26.4645,-82.1044,1.43,31.46,1111122 
SCCF RECON,ioos:station:SCCF:56:1,2017-01-04T05:00:00Z,26.4645,-82.1044,1.47,31.46,1111122 
SCCF RECON,ioos:station:SCCF:56:1,2017-01-04T06:00:00Z,26.4645,-82.1044,1.55,31.66,1111122 
SCCF RECON,ioos:station:SCCF:56:1,2017-01-04T07:00:00Z,26.4645,-82.1044,1.63,31.74,1111122 
SCCF RECON,ioos:station:SCCF:56:1,2017-01-04T08:00:00Z,26.4645,-82.1044,1.7,31.82,1111122 
SCCF RECON,ioos:station:SCCF:56:1,2017-01-04T09:00:00Z,26.4645,-82.1044,1.74,31.94,1111122 
SCCF RECON,ioos:station:SCCF:56:1,2017-01-04T10:00:00Z,26.4645,-82.1044,1.76,31.95,1111122 
SCCF RECON,ioos:station:SCCF:56:1,2017-01-04T11:00:00Z,26.4645,-82.1044,1.74,31.72,1111122 
SCCF RECON,ioos:station:SCCF:56:1,2017-01-04T12:00:00Z,26.4645,-82.1044,1.64,31.72,1111122 
SCCF RECON,ioos:station:SCCF:56:1,2017-01-04T13:00:00Z,26.4645,-82.1044,1.54,31.45,1111122 
SCCF RECON,ioos:station:SCCF:56:1,2017-01-04T14:00:00Z,26.4645,-82.1044,1.43,31.24,1111122 
SCCF RECON,ioos:station:SCCF:56:1,2017-01-04T15:00:00Z,26.4645,-82.1044,1.334,31.14,1111122 
SCCF RECON,ioos:station:SCCF:56:1,2017-01-04T16:00:00Z,26.4645,-82.1044,1.28,31.05,1111122 
SCCF RECON,ioos:station:SCCF:56:1,2017-01-04T17:00:00Z,26.4645,-82.1044,1.25,31.06,1111122 
SCCF RECON,ioos:station:SCCF:56:1,2017-01-04T18:00:00Z,26.4645,-82.1044,1.321,31.07,1111122 
SCCF RECON,ioos:station:SCCF:56:1,2017-01-04T19:00:00Z,26.4645,-82.1044,1.44,31.81,1111122 
SCCF RECON,ioos:station:SCCF:56:1,2017-01-04T20:00:00Z,26.4645,-82.1044,1.56,31.87,1111122 
SCCF RECON,ioos:station:SCCF:56:1,2017-01-04T21:00:00Z,26.4645,-82.1044,1.66,31.87,1111122 
SCCF RECON,ioos:station:SCCF:56:1,2017-01-04T22:00:00Z,26.4645,-82.1044,1.74,31.86,1111122 
SCCF RECON,ioos:station:SCCF:56:1,2017-01-04T23:00:00Z,26.4645,-82.1044,1.75,31.86,1111122 
SCCF RECON,ioos:station:SCCF:56:1,2017-01-05T00:00:00Z,26.4645,-82.1044,1.7,31.78,1111122 
SCCF RECON,ioos:station:SCCF:56:1,2017-01-05T01:00:00Z,26.4645,-82.1044,1.621,31.79,1111122 
SCCF RECON,ioos:station:SCCF:56:1,2017-01-05T02:00:00Z,26.4645,-82.1044,1.53,31.78,1111122 
SCCF RECON,ioos:station:SCCF:56:1,2017-01-05T03:00:00Z,26.4645,-82.1044,1.45,31.67,1111122 
SCCF RECON,ioos:station:SCCF:56:1,2017-01-05T04:00:00Z,26.4645,-82.1044,1.37,31.52,1111122 
SCCF RECON,ioos:station:SCCF:56:1,2017-01-05T05:00:00Z,26.4645,-82.1044,1.31,31.47,1111122 
SCCF RECON,ioos:station:SCCF:56:1,2017-01-05T06:00:00Z,26.4645,-82.1044,1.31,31.43,1111122 
SCCF RECON,ioos:station:SCCF:56:1,2017-01-05T07:00:00Z,26.4645,-82.1044,1.361,31.44,1111122 
SCCF RECON,ioos:station:SCCF:56:1,2017-01-05T08:00:00Z,26.4645,-82.1044,1.47,31.6,1111122 
SCCF RECON,ioos:station:SCCF:56:1,2017-01-05T09:00:00Z,26.4645,-82.1044,1.56,31.56,1111122 
SCCF RECON,ioos:station:SCCF:56:1,2017-01-05T10:00:00Z,26.4645,-82.1044,1.61,31.72,1111122 
SCCF RECON,ioos:station:SCCF:56:1,2017-01-05T11:00:00Z,26.4645,-82.1044,1.63,31.78,1111122 
SCCF RECON,ioos:station:SCCF:56:1,2017-01-05T12:00:00Z,26.4645,-82.1044,1.6,31.72,1111122 
SCCF RECON,ioos:station:SCCF:56:1,2017-01-05T13:00:00Z,26.4645,-82.1044,1.52,31.7,1111122 
SCCF RECON,ioos:station:SCCF:56:1,2017-01-05T14:00:00Z,26.4645,-82.1044,1.43,31.63,1111122 
SCCF RECON,ioos:station:SCCF:56:1,2017-01-05T15:00:00Z,26.4645,-82.1044,1.359,31.54,1111122 
SCCF RECON,ioos:station:SCCF:56:1,2017-01-05T16:00:00Z,26.4645,-82.1044,1.307,31.49,1111122 
SCCF RECON,ioos:station:SCCF:56:1,2017-01-05T17:00:00Z,26.4645,-82.1044,1.28,31.49,1111122 
SCCF RECON,ioos:station:SCCF:56:1,2017-01-05T18:00:00Z,26.4645,-82.1044,1.276,31.48,1111122 
SCCF RECON,ioos:station:SCCF:56:1,2017-01-05T19:00:00Z,26.4645,-82.1044,1.298,31.58,1111122 
SCCF RECON,ioos:station:SCCF:56:1,2017-01-05T20:00:00Z,26.4645,-82.1044,1.41,31.72,1111122 
SCCF RECON,ioos:station:SCCF:56:1,2017-01-05T21:00:00Z,26.4645,-82.1044,1.54,31.78,1111122 
SCCF RECON,ioos:station:SCCF:56:1,2017-01-05T22:00:00Z,26.4645,-82.1044,1.63,31.78,1111122 
SCCF RECON,ioos:station:SCCF:56:1,2017-01-05T23:00:00Z,26.4645,-82.1044,1.7,31.79,1111122 
SCCF RECON,ioos:station:SCCF:56:1,2017-01-06T00:00:00Z,26.4645,-82.1044,1.73,31.8,1111122 
SCCF RECON,ioos:station:SCCF:56:1,2017-01-06T01:00:00Z,26.4645,-82.1044,1.71,31.82,1111122 
SCCF RECON,ioos:station:SCCF:56:1,2017-01-06T02:00:00Z,26.4645,-82.1044,1.62,31.85,1111122 
SCCF RECON,ioos:station:SCCF:56:1,2017-01-06T03:00:00Z,26.4645,-82.1044,1.52,31.81,1111122 
SCCF RECON,ioos:station:SCCF:56:1,2017-01-06T04:00:00Z,26.4645,-82.1044,1.43,31.78,1111122 
SCCF RECON,ioos:station:SCCF:56:1,2017-01-06T05:00:00Z,26.4645,-82.1044,1.363,31.75,1111122 
SCCF RECON,ioos:station:SCCF:56:1,2017-01-06T06:00:00Z,26.4645,-82.1044,1.3,31.74,1111122 
SCCF RECON,ioos:station:SCCF:56:1,2017-01-06T07:00:00Z,26.4645,-82.1044,1.26,31.74,1111122 
SCCF RECON,ioos:station:SCCF:56:1,2017-01-06T08:00:00Z,26.4645,-82.1044,1.31,31.75,1111122 
SCCF RECON,ioos:station:SCCF:56:1,2017-01-06T09:00:00Z,26.4645,-82.1044,1.43,31.81,1111122 
SCCF RECON,ioos:station:SCCF:56:1,2017-01-06T10:00:00Z,26.4645,-82.1044,1.52,31.76,1111122 
SCCF RECON,ioos:station:SCCF:56:1,2017-01-06T11:00:00Z,26.4645,-82.1044,1.58,31.75,1111122 
SCCF RECON,ioos:station:SCCF:56:1,2017-01-06T12:00:00Z,26.4645,-82.1044,1.62,31.8,1111122 
SCCF RECON,ioos:station:SCCF:56:1,2017-01-06T13:00:00Z,26.4645,-82.1044,1.631,31.87,1111122 
SCCF RECON,ioos:station:SCCF:56:1,2017-01-06T14:00:00Z,26.4645,-82.1044,1.6,31.87,1111122 
SCCF RECON,ioos:station:SCCF:56:1,2017-01-06T15:00:00Z,26.4645,-82.1044,1.54,31.86,1111122 
SCCF RECON,ioos:station:SCCF:56:1,2017-01-06T16:00:00Z,26.4645,-82.1044,1.47,31.84,1111122 
SCCF RECON,ioos:station:SCCF:56:1,2017-01-06T17:00:00Z,26.4645,-82.1044,1.413,31.82,1111122 
SCCF RECON,ioos:station:SCCF:56:1,2017-01-06T18:00:00Z,26.4645,-82.1044,1.35,31.8,1111122 
SCCF RECON,ioos:station:SCCF:56:1,2017-01-06T19:00:00Z,26.4645,-82.1044,1.356,31.81,1111122 
SCCF RECON,ioos:station:SCCF:56:1,2017-01-06T20:00:00Z,26.4645,-82.1044,1.45,31.85,1111122 
SCCF RECON,ioos:station:SCCF:56:1,2017-01-06T21:00:00Z,26.4645,-82.1044,1.564,31.92,1111122 
SCCF RECON,ioos:station:SCCF:56:1,2017-01-06T22:00:00Z,26.4645,-82.1044,1.66,31.96,1111122 
SCCF RECON,ioos:station:SCCF:56:1,2017-01-06T23:00:00Z,26.4645,-82.1044,1.75,31.96,1111122 
SCCF RECON,ioos:station:SCCF:56:1,2017-01-07T00:00:00Z,26.4645,-82.1044,1.83,31.96,1111122 
SCCF RECON,ioos:station:SCCF:56:1,2017-01-07T01:00:00Z,26.4645,-82.1044,1.88,31.97,1111122 
SCCF RECON,ioos:station:SCCF:56:1,2017-01-07T02:00:00Z,26.4645,-82.1044,1.87,31.96,1111122 
SCCF RECON,ioos:station:SCCF:56:1,2017-01-07T03:00:00Z,26.4645,-82.1044,1.78,31.94,1111122 
SCCF RECON,ioos:station:SCCF:56:1,2017-01-07T04:00:00Z,26.4645,-82.1044,1.69,31.93,1111122 
SCCF RECON,ioos:station:SCCF:56:1,2017-01-07T05:00:00Z,26.4645,-82.1044,1.59,31.91,1111122 
SCCF RECON,ioos:station:SCCF:56:1,2017-01-07T06:00:00Z,26.4645,-82.1044,1.5,31.91,1111122 
SCCF RECON,ioos:station:SCCF:56:1,2017-01-07T07:00:00Z,26.4645,-82.1044,1.4,31.89,1111122 
SCCF RECON,ioos:station:SCCF:56:1,2017-01-07T08:00:00Z,26.4645,-82.1044,1.34,31.89,1111122 
SCCF RECON,ioos:station:SCCF:56:1,2017-01-07T09:00:00Z,26.4645,-82.1044,1.42,31.91,1111122 
SCCF RECON,ioos:station:SCCF:56:1,2017-01-07T10:00:00Z,26.4645,-82.1044,1.53,31.92,1111122 
SCCF RECON,ioos:station:SCCF:56:1,2017-01-07T11:00:00Z,26.4645,-82.1044,1.64,32.07,1111122 
SCCF RECON,ioos:station:SCCF:56:1,2017-01-07T12:00:00Z,26.4645,-82.1044,1.73,32.18,1111122 
SCCF RECON,ioos:station:SCCF:56:1,2017-01-07T13:00:00Z,26.4645,-82.1044,1.78,32.18,1111122 
SCCF RECON,ioos:station:SCCF:56:1,2017-01-07T14:00:00Z,26.4645,-82.1044,1.78,32.04,1111122 
SCCF RECON,ioos:station:SCCF:56:1,2017-01-07T15:00:00Z,26.4645,-82.1044,1.76,32.11,1111122 
SCCF RECON,ioos:station:SCCF:56:1,2017-01-07T16:00:00Z,26.4645,-82.1044,1.789,32.1,1111122 
SCCF RECON,ioos:station:SCCF:56:1,2017-01-07T17:00:00Z,26.4645,-82.1044,1.722,31.37,1111122 
SCCF RECON,ioos:station:SCCF:56:1,2017-01-07T18:00:00Z,26.4645,-82.1044,1.62,31.56,1111122 
SCCF RECON,ioos:station:SCCF:56:1,2017-01-07T19:00:00Z,26.4645,-82.1044,1.539,30.98,1111122 
SCCF RECON,ioos:station:SCCF:56:1,2017-01-07T20:00:00Z,26.4645,-82.1044,1.491,30.78,1111122 
SCCF RECON,ioos:station:SCCF:56:1,2017-01-07T21:00:00Z,26.4645,-82.1044,1.47,30.63,1111122 
SCCF RECON,ioos:station:SCCF:56:1,2017-01-07T22:00:00Z,26.4645,-82.1044,1.46,30.59,1111122 
SCCF RECON,ioos:station:SCCF:56:1,2017-01-07T23:00:00Z,26.4645,-82.1044,1.483,30.6,1111122 
SCCF RECON,ioos:station:SCCF:56:1,2017-01-08T00:00:00Z,26.4645,-82.1044,1.53,30.62,1111122 
SCCF RECON,ioos:station:SCCF:56:1,2017-01-08T01:00:00Z,26.4645,-82.1044,1.55,30.61,1111122 
SCCF RECON,ioos:station:SCCF:56:1,2017-01-08T02:00:00Z,26.4645,-82.1044,1.544,30.55,1111122 
SCCF RECON,ioos:station:SCCF:56:1,2017-01-08T03:00:00Z,26.4645,-82.1044,1.519,30.65,1111122 
SCCF RECON,ioos:station:SCCF:56:1,2017-01-08T04:00:00Z,26.4645,-82.1044,1.466,30.64,1111122 
SCCF RECON,ioos:station:SCCF:56:1,2017-01-08T05:00:00Z,26.4645,-82.1044,1.354,30.66,1111122 
SCCF RECON,ioos:station:SCCF:56:1,2017-01-08T06:00:00Z,26.4645,-82.1044,1.245,30.66,1111122 
SCCF RECON,ioos:station:SCCF:56:1,2017-01-08T07:00:00Z,26.4645,-82.1044,1.09,30.65,1111122 
SCCF RECON,ioos:station:SCCF:56:1,2017-01-08T08:00:00Z,26.4645,-82.1044,0.981,30.69,1111122 
SCCF RECON,ioos:station:SCCF:56:1,2017-01-08T09:00:00Z,26.4645,-82.1044,0.88,30.73,1111122 
SCCF RECON,ioos:station:SCCF:56:1,2017-01-08T10:00:00Z,26.4645,-82.1044,0.833,30.77,1111122 
SCCF RECON,ioos:station:SCCF:56:1,2017-01-08T11:00:00Z,26.4645,-82.1044,0.871,30.75,1111122 
SCCF RECON,ioos:station:SCCF:56:1,2017-01-08T12:00:00Z,26.4645,-82.1044,0.97,30.8,1111122 
SCCF RECON,ioos:station:SCCF:56:1,2017-01-08T13:00:00Z,26.4645,-82.1044,1.09,31.13,1111122 
SCCF RECON,ioos:station:SCCF:56:1,2017-01-08T14:00:00Z,26.4645,-82.1044,1.173,31.11,1111122 
SCCF RECON,ioos:station:SCCF:56:1,2017-01-08T15:00:00Z,26.4645,-82.1044,1.233,31.12,1111122 
SCCF RECON,ioos:station:SCCF:56:1,2017-01-08T16:00:00Z,26.4645,-82.1044,1.249,31.14,1111122 
SCCF RECON,ioos:station:SCCF:56:1,2017-01-08T17:00:00Z,26.4645,-82.1044,1.261,31.15,1111122 
SCCF RECON,ioos:station:SCCF:56:1,2017-01-08T18:00:00Z,26.4645,-82.1044,1.26,31.18,1111122 
SCCF RECON,ioos:station:SCCF:56:1,2017-01-08T19:00:00Z,26.4645,-82.1044,1.266,31.2,1111122 
SCCF RECON,ioos:station:SCCF:56:1,2017-01-08T20:00:00Z,26.4645,-82.1044,1.277,31.22,1111122 
SCCF RECON,ioos:station:SCCF:56:1,2017-01-08T21:00:00Z,26.4645,-82.1044,1.28,31.24,1111122 
SCCF RECON,ioos:station:SCCF:56:1,2017-01-08T22:00:00Z,26.4645,-82.1044,1.334,31.3,1111122 
SCCF RECON,ioos:station:SCCF:56:1,2017-01-08T23:00:00Z,26.4645,-82.1044,1.48,31.31,1111122 
SCCF RECON,ioos:station:SCCF:56:1,2017-01-09T00:00:00Z,26.4645,-82.1044,1.62,31.28,1111122 
SCCF RECON,ioos:station:SCCF:56:1,2017-01-09T01:00:00Z,26.4645,-82.1044,1.74,31.53,1111122 
SCCF RECON,ioos:station:SCCF:56:1,2017-01-09T02:00:00Z,26.4645,-82.1044,1.819,31.59,1111122 
SCCF RECON,ioos:station:SCCF:56:1,2017-01-09T03:00:00Z,26.4645,-82.1044,1.748,31.42,1111122 
SCCF RECON,ioos:station:SCCF:56:1,2017-01-09T04:00:00Z,26.4645,-82.1044,1.643,31.4,1111122 
SCCF RECON,ioos:station:SCCF:56:1,2017-01-09T05:00:00Z,26.4645,-82.1044,1.52,31.35,1111122 
SCCF RECON,ioos:station:SCCF:56:1,2017-01-09T06:00:00Z,26.4645,-82.1044,1.412,31.31,1111122 
SCCF RECON,ioos:station:SCCF:56:1,2017-01-09T07:00:00Z,26.4645,-82.1044,1.292,31.31,1111122 
SCCF RECON,ioos:station:SCCF:56:1,2017-01-09T08:00:00Z,26.4645,-82.1044,1.169,31.33,1111122 
SCCF RECON,ioos:station:SCCF:56:1,2017-01-09T09:00:00Z,26.4645,-82.1044,1.059,31.35,1111122 
SCCF RECON,ioos:station:SCCF:56:1,2017-01-09T10:00:00Z,26.4645,-82.1044,0.958,31.37,1111122 
SCCF RECON,ioos:station:SCCF:56:1,2017-01-09T11:00:00Z,26.4645,-82.1044,0.935,31.4,1111122 
SCCF RECON,ioos:station:SCCF:56:1,2017-01-09T12:00:00Z,26.4645,-82.1044,1.044,31.41,1111122 
SCCF RECON,ioos:station:SCCF:56:1,2017-01-09T13:00:00Z,26.4645,-82.1044,1.217,31.44,1111122 
SCCF RECON,ioos:station:SCCF:56:1,2017-01-09T14:00:00Z,26.4645,-82.1044,1.35,31.5,1111122 
SCCF RECON,ioos:station:SCCF:56:1,2017-01-09T15:00:00Z,26.4645,-82.1044,1.47,31.51,1111122 
SCCF RECON,ioos:station:SCCF:56:1,2017-01-09T16:00:00Z,26.4645,-82.1044,1.55,31.5,1111122 
SCCF RECON,ioos:station:SCCF:56:1,2017-01-09T17:00:00Z,26.4645,-82.1044,1.57,31.5,1111122 
SCCF RECON,ioos:station:SCCF:56:1,2017-01-09T18:00:00Z,26.4645,-82.1044,1.515,31.55,1111122 
SCCF RECON,ioos:station:SCCF:56:1,2017-01-09T19:00:00Z,26.4645,-82.1044,1.43,31.53,1111122 
SCCF RECON,ioos:station:SCCF:56:1,2017-01-09T20:00:00Z,26.4645,-82.1044,1.39,31.53,1111122 
SCCF RECON,ioos:station:SCCF:56:1,2017-01-09T21:00:00Z,26.4645,-82.1044,1.4,31.52,1111122 
SCCF RECON,ioos:station:SCCF:56:1,2017-01-09T22:00:00Z,26.4645,-82.1044,1.464,31.65,1111122 
SCCF RECON,ioos:station:SCCF:56:1,2017-01-09T23:00:00Z,26.4645,-82.1044,1.566,31.58,1111122 
SCCF RECON,ioos:station:SCCF:56:1,2017-01-10T00:00:00Z,26.4645,-82.1044,1.66,31.56,1111122 
SCCF RECON,ioos:station:SCCF:56:1,2017-01-10T01:00:00Z,26.4645,-82.1044,1.76,31.59,1111122 
SCCF RECON,ioos:station:SCCF:56:1,2017-01-10T02:00:00Z,26.4645,-82.1044,1.84,31.53,1111122 
SCCF RECON,ioos:station:SCCF:56:1,2017-01-10T03:00:00Z,26.4645,-82.1044,1.889,31.52,1111122 
SCCF RECON,ioos:station:SCCF:56:1,2017-01-10T04:00:00Z,26.4645,-82.1044,1.87,31.71,1111122 
SCCF RECON,ioos:station:SCCF:56:1,2017-01-10T05:00:00Z,26.4645,-82.1044,1.76,31.55,1111122 
SCCF RECON,ioos:station:SCCF:56:1,2017-01-10T06:00:00Z,26.4645,-82.1044,1.621,31.56,1111122 
SCCF RECON,ioos:station:SCCF:56:1,2017-01-10T07:00:00Z,26.4645,-82.1044,1.481,31.58,1111122 
SCCF RECON,ioos:station:SCCF:56:1,2017-01-10T08:00:00Z,26.4645,-82.1044,1.35,31.58,1111122 
SCCF RECON,ioos:station:SCCF:56:1,2017-01-10T09:00:00Z,26.4645,-82.1044,1.217,31.57,1111122 
SCCF RECON,ioos:station:SCCF:56:1,2017-01-10T10:00:00Z,26.4645,-82.1044,1.097,31.63,1111122 
SCCF RECON,ioos:station:SCCF:56:1,2017-01-10T11:00:00Z,26.4645,-82.1044,1.02,31.63,1111122 
SCCF RECON,ioos:station:SCCF:56:1,2017-01-10T12:00:00Z,26.4645,-82.1044,1.06,31.66,1111122 
SCCF RECON,ioos:station:SCCF:56:1,2017-01-10T13:00:00Z,26.4645,-82.1044,1.25,31.65,1111122 
SCCF RECON,ioos:station:SCCF:56:1,2017-01-10T14:00:00Z,26.4645,-82.1044,1.41,31.65,1111122 
SCCF RECON,ioos:station:SCCF:56:1,2017-01-10T15:00:00Z,26.4645,-82.1044,1.55,31.67,1111122 
SCCF RECON,ioos:station:SCCF:56:1,2017-01-10T16:00:00Z,26.4645,-82.1044,1.68,31.73,1111122 
SCCF RECON,ioos:station:SCCF:56:1,2017-01-10T17:00:00Z,26.4645,-82.1044,1.75,31.73,1111122 
SCCF RECON,ioos:station:SCCF:56:1,2017-01-10T18:00:00Z,26.4645,-82.1044,1.761,31.81,1111122 
SCCF RECON,ioos:station:SCCF:56:1,2017-01-10T19:00:00Z,26.4645,-82.1044,1.72,31.82,1111122 
SCCF RECON,ioos:station:SCCF:56:1,2017-01-10T20:00:00Z,26.4645,-82.1044,1.64,31.76,1111122 
SCCF RECON,ioos:station:SCCF:56:1,2017-01-10T21:00:00Z,26.4645,-82.1044,1.58,31.75,1111122 
SCCF RECON,ioos:station:SCCF:56:1,2017-01-10T22:00:00Z,26.4645,-82.1044,1.611,31.75,1111122 
SCCF RECON,ioos:station:SCCF:56:1,2017-01-10T23:00:00Z,26.4645,-82.1044,1.66,31.26,1111122 
SCCF RECON,ioos:station:SCCF:56:1,2017-01-11T00:00:00Z,26.4645,-82.1044,1.767,31.07,1111122 
SCCF RECON,ioos:station:SCCF:56:1,2017-01-11T01:00:00Z,26.4645,-82.1044,1.88,30.71,1111122 
SCCF RECON,ioos:station:SCCF:56:1,2017-01-11T02:00:00Z,26.4645,-82.1044,1.97,30.63,1111122 
SCCF RECON,ioos:station:SCCF:56:1,2017-01-11T03:00:00Z,26.4645,-82.1044,2.03,30.83,1111122 
SCCF RECON,ioos:station:SCCF:56:1,2017-01-11T04:00:00Z,26.4645,-82.1044,2.1,30.83,1111122 
SCCF RECON,ioos:station:SCCF:56:1,2017-01-11T05:00:00Z,26.4645,-82.1044,2.11,30.81,1111122 
SCCF RECON,ioos:station:SCCF:56:1,2017-01-11T06:00:00Z,26.4645,-82.1044,1.99,30.79,1111122 
SCCF RECON,ioos:station:SCCF:56:1,2017-01-11T07:00:00Z,26.4645,-82.1044,1.8,30.87,1111122 
SCCF RECON,ioos:station:SCCF:56:1,2017-01-11T08:00:00Z,26.4645,-82.1044,1.63,31.09,1111122 
SCCF RECON,ioos:station:SCCF:56:1,2017-01-11T09:00:00Z,26.4645,-82.1044,1.461,31.22,1111122 
SCCF RECON,ioos:station:SCCF:56:1,2017-01-11T10:00:00Z,26.4645,-82.1044,1.31,31.31,1111122 
SCCF RECON,ioos:station:SCCF:56:1,2017-01-11T11:00:00Z,26.4645,-82.1044,1.18,31.36,1111122 
SCCF RECON,ioos:station:SCCF:56:1,2017-01-11T12:00:00Z,26.4645,-82.1044,1.09,31.41,1111122 
SCCF RECON,ioos:station:SCCF:56:1,2017-01-11T13:00:00Z,26.4645,-82.1044,1.13,31.56,1111122 
SCCF RECON,ioos:station:SCCF:56:1,2017-01-11T14:00:00Z,26.4645,-82.1044,1.31,31.19,1111122 
SCCF RECON,ioos:station:SCCF:56:1,2017-01-11T15:00:00Z,26.4645,-82.1044,1.47,31.22,1111122 
SCCF RECON,ioos:station:SCCF:56:1,2017-01-11T16:00:00Z,26.4645,-82.1044,1.6,31.19,1111122 
SCCF RECON,ioos:station:SCCF:56:1,2017-01-11T17:00:00Z,26.4645,-82.1044,1.698,31.12,1111122 
SCCF RECON,ioos:station:SCCF:56:1,2017-01-11T18:00:00Z,26.4645,-82.1044,1.73,31.37,1111122 